I5EKX-13 Weather Reports


time (UTC)temp
C
wind
direction
speed
KPH
gust
KPH
rain 1hr
cm
rain 24hr
cm
rain mn
cm
humidity
%
barometer
mb
20260507023545 11 0.0 0.0 0.00 0.00 0.00 87 1008.7
20260507021540 11 0.0 0.0 0.00 0.00 0.00 87 1008.7
20260507015536 11 0.0 0.0 0.00 0.00 0.00 88 1008.7
20260507013532 11 0.0 0.0 0.00 0.00 0.00 87 1008.7
20260507011528 11 0.0 0.0 0.00 0.00 0.00 88 1008.6
20260507005523 12 0.0 0.0 0.00 0.00 0.00 88 1008.7
20260507003519 12 0.0 0.0 0.00 0.00 0.00 89 1008.7
20260507001515 12 0.0 0.0 0.00 0.00 0.00 87 1008.7
20260506235510 13 0.0 0.0 0.00 0.00 0.00 86 1008.8
20260506233505 13 0.0 0.0 0.00 0.00 0.00 86 1008.7
20260506231501 13 0.0 0.0 0.00 0.00 0.00 87 1008.8
20260506225456 13 0.0 0.0 0.00 0.00 0.00 86 1008.8
20260506223451 13 0.0 0.0 0.00 0.00 0.00 87 1008.9
20260506221446 13 0.0 0.0 0.00 0.00 0.00 87 1008.7
20260506215441 15 0.0 0.0 0.00 0.00 0.00 85 1008.7
20260506213437 15 0.0 0.0 0.00 0.00 0.00 85 1008.6
20260506211432 15 0.0 0.0 0.00 0.00 0.00 87 1008.7
20260506203423 15 0.0 0.0 0.00 0.00 0.00 86 1008.4
20260506201418 15 0.0 0.0 0.00 0.00 0.00 86 1008.3
20260506195413 16 0.0 0.0 0.00 0.00 0.00 82 1008.1
20260506193409 15 0.0 0.0 0.00 0.00 0.00 86 1007.9
20260506191403 15 0.0 0.0 0.00 0.00 0.00 86 1007.5
20260506185359 16 0.0 0.0 0.00 0.00 0.00 83 1007.3
20260506183354 17 0.0 0.0 0.00 0.00 0.00 78 1007.0
20260506181350 17 0.0 0.0 0.00 0.00 0.00 76 1006.9
20260506175345 18 0.0 0.0 0.00 0.00 0.00 76 1006.8
20260506173340 18 0.0 0.0 0.00 0.00 0.00 74 1006.8
20260506171336 18 0.0 0.0 0.00 0.00 0.00 72 1006.6
20260506165331 18 0.0 0.0 0.00 0.00 0.00 74 1006.7
20260506163326 18 0.0 0.0 0.00 0.00 0.00 75 1006.7
20260506161321 18 0.0 0.0 0.00 0.00 0.00 72 1006.8
20260506155316 18 0.0 0.0 0.00 0.00 0.00 70 1006.8
20260506145305 20 0.0 0.0 0.00 0.00 0.00 66 1006.6
20260506143257 20 0.0 0.0 0.00 0.00 0.00 69 1006.5
20260506141252 20 0.0 0.0 0.00 0.00 0.00 71 1006.7
20260506135248 21 0.0 0.0 0.00 0.00 0.00 74 1006.6
20260506133243 20 0.0 0.0 0.00 0.00 0.00 82 1006.8
20260506131238 20 0.0 0.0 0.00 0.00 0.00 80 1006.9
20260506125233 18 0.0 0.0 0.00 0.00 0.00 83 1006.9
20260506123228 20 0.0 0.0 0.00 0.00 0.00 79 1006.9
20260506121223 21 0.0 0.0 0.00 0.00 0.00 76 1007.0
20260506113215 21 0.0 0.0 0.00 0.00 0.00 75 1006.6
20260506111210 20 0.0 0.0 0.00 0.00 0.00 77 1006.8
20260506105206 20 0.0 0.0 0.00 0.00 0.00 77 1006.8
20260506103202 19 0.0 0.0 0.00 0.00 0.00 82 1006.9
20260506101158 21 0.0 0.0 0.00 0.00 0.00 77 1006.9
20260506095153 21 0.0 0.0 0.00 0.00 0.00 76 1006.5
20260506093150 19 0.0 0.0 0.00 0.00 0.00 80 1006.5
20260506092735 19 0.0 0.0 0.00 0.00 0.00 82 1006.5
20260506090730 17 0.0 0.0 0.00 0.00 0.00 84 1006.3
20260506084725 17 0.0 0.0 0.00 0.00 0.00 85 1006.3
20260506082720 17 0.0 0.0 0.00 0.00 0.00 87 1006.2
20260506072706 16 0.0 0.0 0.00 0.00 0.00 87 1006.0
20260506070701 16 0.0 0.0 0.00 0.00 0.00 89 1006.1
20260506060647 16 0.0 0.0 0.00 0.00 0.00 92 1006.0
20260506050632 15 0.0 0.0 0.00 0.00 0.00 94 1005.6
20260506044628 15 0.0 0.0 0.00 0.00 0.00 93 1005.6
20260506042623 15 0.0 0.0 0.00 0.00 0.00 93 1005.7
20260506040619 15 0.0 0.0 0.00 0.00 0.00 93 1005.8
20260506034613 15 0.0 0.0 0.00 0.00 0.00 94 1005.5
20260506032609 15 0.0 0.0 0.00 0.00 0.00 94 1005.9
20260506030604 15 0.0 0.0 0.00 0.00 0.00 94 1005.9